Hourly Weather Roundup
Issued by NWS Central Illinois

Home | Current Version | Previous Version | Text Only | Print | Product List | Glossary On
Versions: 1 2 3 4 5 6 7 8 9 10 11 12 13 14 15 16 17 18 19 20 21 22 23 24 25 26 27 28 29 30 31 32 33 34 35 36 37 38 39 40 41 42 43 44 45 46 47 48 49 50
000
NZUS43 KILX 281310
HWRILX

AREA WEATHER ROUNDUP
NATIONAL WEATHER SERVICE, LINCOLN IL
700 AM CST SAT FEB 28 2015


CITY           SKY/WX    TMP DP  RH WIND       PRES   REMARKS
BLOOMINGTON    MOCLDY     7   1  76 CALM      30.67S
CHAMPAIGN      MOCLDY     9   2  73 E9        30.67F WCI  -4
DECATUR        CLOUDY    10   2  69 E7        30.68S WCI  -1
FLORA          CLOUDY    14   6  70 E3        30.68S
GALESBURG      CLOUDY     0  -4  82 E3        30.65S
JACKSONVILLE   PTCLDY     3  -2  77 E7        30.65F WCI  -9
LACON          PTCLDY    -9 -14  80 CALM      30.69S
LAWRENCEVILLE  CLOUDY    15   6  67 E7        30.69S WCI   5
LITCHFIELD     PTCLDY    11   1  62 E6        30.65S WCI   2
$$


CITY           SKY/WX    TMP DP  RH WIND       PRES   REMARKS
LINCOLN        MOCLDY    10   3  72 SE3       30.70F
MACOMB         CLOUDY     2  -1  85 E3        30.67F
MATTOON        CLOUDY    12   2  64 E6        30.66F WCI   3
MT CARMEL AP   CLOUDY    19   9  63 E6        30.68S WCI  11
OLNEY-NOBLE AP CLOUDY    14   5  67 NE3       30.69R
PARIS          CLOUDY     9   3  77 NE3       30.70F
PEORIA         CLOUDY     6   0  76 E5        30.68S WCI  -3
PONTIAC        CLOUDY    -1  -4  85 E6        30.70F WCI -12
RANTOUL        CLOUDY    11   4  71 E6        30.68F WCI   2
ROBINSON       CLOUDY    14   7  73 NE3       30.70F
SPRINGFIELD    CLOUDY     9   0  67 E5        30.67S WCI   1
TAYLORVILLE    CLOUDY    12   3  67 E9        30.66F WCI   0
$$

...REGIONAL REPORTS...


CITY           SKY/WX    TMP DP  RH WIND       PRES   REMARKS
CHICAGO O`HARE MOCLDY    -6  -8  91 CALM      30.70R
KANKAKEE       PTCLDY    -3  -7  82 E3        30.72S
MOLINE         MOCLDY   -13 -19  75 E3        30.67F
MOUNT VERNON   CLOUDY    16   5  62 NE5       30.66S WCI   9
PITTSFIELD     CLOUDY    10   4  77 NE3       30.64S
QUINCY         CLOUDY     7  -2  66 E7        30.62S WCI  -5
ROCKFORD       MOCLDY   -14 -21  71 CALM      30.69S
$$


CITY           SKY/WX    TMP DP  RH WIND       PRES   REMARKS
BURLINGTON     CLOUDY     4  -2  76 E6        30.64S WCI  -7
CEDAR RAPIDS   PTCLDY    -9 -14  78 SE5       30.61S WCI -20
DES MOINES     MOCLDY     3  -5  69 SE7       30.56S WCI  -9
KIRKSVILLE     CLOUDY    11   3  70 SE6       30.58S WCI   1
OTTUMWA        PTCLDY    -4  -9  79 SE6       30.59F WCI -16
ST LOUIS       CLOUDY    17   6  62 E7        30.64S WCI   8
$$


CITY           SKY/WX    TMP DP  RH WIND       PRES   REMARKS
TERRE HAUTE    CLOUDY    13   3  64 NE6       30.70S WCI   4
EVANSVILLE     CLOUDY    21   8  57 E7        30.68R WCI  12
INDIANAPOLIS   CLOUDY    12   2  64 E5        30.69R WCI   4
LAFAYETTE      CLOUDY     7  -1  70 E5        30.73R WCI  -2
MADISON        PTCLDY    -8 -13  78 S5        30.64R WCI -19
MILWAUKEE      PTCLDY    -3  -9  75 SW3       30.67S
$$





USA.gov is the U.S. government's official web portal to all federal, state and local government web resources and services.